This is the latest recevied weather packets stored in our database for station/object NA9VY-8. If no packets are shown the sender has not sent any weather packets the latest 10 day(s).
| Time | Temp. | Humidity | Pressure | Rain* | Wind** | Luminosity | Snow |
|---|---|---|---|---|---|---|---|
| 1777846794 | 16.67° C | 49% | 1016.8 hPa | 0 mm | - | 119 W/m² | - |
| 1777846492 | 16.67° C | 48% | 1017.2 hPa | 0 mm | - | 154 W/m² | - |
| 1777846189 | 16.67° C | 49% | 1017.3 hPa | 0 mm | - | 138 W/m² | - |
| 1777845885 | 16.67° C | 51% | 1017.2 hPa | 0 mm | - | 148 W/m² | - |
| 1777845582 | 16.67° C | 48% | 1017.3 hPa | 0 mm | - | 171 W/m² | - |
| 1777845279 | 16.67° C | 48% | 1017 hPa | 0 mm | - | 165 W/m² | - |
| 1777844977 | 16.67° C | 49% | 1017.3 hPa | 0 mm | - | 146 W/m² | - |
| 1777844675 | 16.67° C | 48% | 1017.4 hPa | 0 mm | - | 102 W/m² | - |
| 1777844372 | 16.67° C | 48% | 1017.5 hPa | 0 mm | - | 114 W/m² | - |
| 1777844070 | 16.67° C | 48% | 1017.5 hPa | 0 mm | - | 124 W/m² | - |
| 1777843766 | 16.67° C | 47% | 1017.8 hPa | 0 mm | - | 133 W/m² | - |
| 1777843464 | 16.11° C | 50% | 1017.8 hPa | 0 mm | - | 133 W/m² | - |
| 1777843161 | 16.67° C | 47% | 1018.1 hPa | 0 mm | - | 117 W/m² | - |
| 1777842857 | 16.67° C | 47% | 1018.3 hPa | 0 mm | - | 273 W/m² | - |
| 1777842553 | 16.67° C | 49% | 1018.4 hPa | 0 mm | - | 139 W/m² | - |
| 1777842251 | 16.67° C | 49% | 1018.6 hPa | 0 mm | - | 146 W/m² | - |
| 1777841950 | 16.67° C | 46% | 1019.1 hPa | 0 mm | - | 192 W/m² | - |
| 1777841648 | 16.67° C | 45% | 1019.1 hPa | 0 mm | - | 194 W/m² | - |
| 1777841344 | 17.22° C | 44% | 1019 hPa | 0 mm | - | 226 W/m² | - |
| 1777841041 | 17.78° C | 43% | 1019.2 hPa | 0 mm | - | 232 W/m² | - |
| 1777840738 | 17.78° C | 45% | 1019.2 hPa | 0 mm | - | 404 W/m² | - |
| 1777840435 | 17.78° C | 44% | 1019 hPa | 0 mm | - | 516 W/m² | - |
| 1777840132 | 17.78° C | 42% | 1019 hPa | 0 mm | - | 557 W/m² | - |
| 1777839830 | 17.78° C | 43% | 1018.7 hPa | 0 mm | - | 477 W/m² | - |
| 1777839529 | 17.22° C | 50% | 1019.1 hPa | 0 mm | - | 533 W/m² | - |
* Rain latest hour (hover to see other rain measurements)
** Current wind speed in m/s (hover to see current wind gust speed)